SCP
0 0 0 0 0 0 0 0 0 0 0 0 0 0 0 0 0 0 0 0 0 0 0 0 0 0 0 0 0 0 0 0 0 0 0 0 0 0 0 0 0 0 0
0 0 0 0 0 0 0 0 0 0 0 0 0 0 0 0 0 0 0 0 0 0 0 0 0 0 0 0 0 0 0 0 0 0 0 0 0 0 0 0 0 0 0
0 0 0 0 0 0 0 0 0 0 0 0 0 0 0 0 0 0 0 0 0 0 0 0 0 0 0 0 0 0 0 0 0 0 0 0 0 0 0 0 0 0 0
0 0 0 0 0 0 0 0 0 0 0 0 0 0 0 0 0 0 0 0 0 0 0 0 0 0 0 0 0 0 0 0 0 0 0 0 0 0 0 0 0 0 0
0 0 0 0 0 0 0 0 0 0 0 0 0 0 0 0 0 0 0 0 0 0 0 0 0 0 0 0 0 0 0 0 0 0 0 0 0 0 0 0 0 0 0
0 0 0 0 0 0 0 0 0 0 0 0 0 0 0 0 0 0 0 0 0 0 0 0 0 0 0 0 0 0 0 0 0 0 0 0 0 0 0 0 0 0 0
0 0 0 0 0 0 0 0 0 0 0 0 0 0 0 0 0 0 0 0 0 0 0 0 0 0 0 0 0 0 0 0 0 0 0 0 0 0 0 0 0 0 0
0 0 0 0 0 0 0 0 0 0 0 0 0 0 0 0 0 0 0 0 0 0 0 0 0 0 0 0 0 0 0 0 0 0 0 0 0 0 0 0 0 0 0
0 0 0 0 0 0 0 0 0 0 0 0 0 0 0 0 0 0 0 0 0 0 0 0 0 0 0 0 0 0 0 0 0 0 0 0 0 0 0 0 0 0 0
0 0 0 0 0 0 0 0 0 0 0 0 0 0 0 0 0 0 0 0 0 0 0 0 0 0 0 0 0 0 0 0 0 0 0 0 0 0 0 0 0 0 0
0 0 0 0 0 0 0 0 0 0 0 0 0 0 0 0 0 0 0 0 0 0 0 0 0 0 0 0 0 0 0 0 0 0 0 0 0 0 0 0 0 0 0
0 0 0 0 0 0 0 0 0 0 0 0 0 0 0 0 0 0 0 0 0 0 0 0 0 0 0 0 0 0 0 0 0 0 0 0 0 0 0 0 0 0 0
0 0 0 0 0 0 0 0 0 0 0 0 0 0 0 0 0 0 0 0 0 0 0 0 0 -0 -0 0 0 0 0 0 0 0 0 0 0 0 0 0 0 0 0
0 0 0 0 0 0 0 0 0 0 0 0 0 0 0 0 0 0 0 0 0 0 0 -0 -0 -0 -0 0 0 0 0 0 0 0 0 0 0 0 0 0 0 0 0
0 0 0 0 0 0 0 0 0 0 0 0 0 0 0 0 0 0 0 0 0 0 -0 -0 0 0 0 0 0 0 0 0 0 0 0 0 0 0 0 0 0 0 0
0 0 0 0 0 0 0 0 0 0 0 0 0 0 0 0 0 0 0 0 0 0 0 0 0 0 0 0 0 0 0 0 0 0 0 0 0 0 0 0 0 0 0
0 0 0 0 0 0 0 0 0 0 0 0 0 0 0 0 0 0 0 0 0 0 0 0 0 0 0 0 0 0 0 0 0 0 0 0 0 0 0 0 0 0 0
0 0 0 0 0 0 0 0 0 0 0 0 0 0 0 0 0 0 0 0 0 0 0 0 0 0 0 0 0 0 0 0 0 0 0 0 0 0 0 0 0 0 0
0 0 0 0 0 0 0 0 0 0 0 0 0 0 0 0 0 0 0 0 0 0 0 0 0 0 0 0 0 0 0 0 0 0 0 0 0 0 0 0 0 0 0
0 0 0 0 0 0 0 0 0 0 0 0 0 0 0 0 0 0 0 0 0 0 0 0 0 0 0 0 0 0 0 0 0 0 0 0 0 0 0 0 0 0 0
0 0 0 0 0 0 0 0 0 0 0 0 0 0 0 0 0 0 0 0 0 0 0 0 0 0 0 0 0 0 0 0 0 0 0 0 0 0 0 0 0 0 0
0 0 0 0 0 0 0 0 0 0 0 0 0 0 0 0 0 0 0 0 0 0 0 0 0 0 0 0 0 0 0 0 0 0 0 0 0 0 0 0 0 0 0
0 0 0 0 0 0 0 0 0 0 0 0 0 0 0 0 0 0 0 0 0 0 0 0 0 0 0 0 0 0 0 0 0 0 0 0 0 0 0 0 0 0 0
0 0 0 0 0 0 0 0 0 0 0 0 0 0 0 0 0 0 0 0 0 0 0 0 0 0 0 0 0 0 0 0 0 0 0 0 0 0 0 0 0 0 0
0 0 0 0 0 0 0 0 0 0 0 0 0 0 0 0 0 0 0 0 0 0 0 0 0 0 0 0 0 0 0 0 0 0 0 0 0 0 0 0 0 0 0
0 0 0 0 0 0 0 0 0 0 0 0 0 0 0 0 0 0 0 0 0 0 0 0 0 0 0 0 0 0 0 0 0 0 0 0 0 0 0 0 0 0 0
Wind_Speed
3 3 8 12 13 13 12 13 13 14 14 15 16 16 17 17 17 17 17 18 18 19 19 20 20 20 20 20 20 20 20 20 20 20 20 20 19 19 19 18 16 11 19
6 5 9 12 13 13 12 13 13 14 15 16 16 16 16 17 17 17 17 17 18 19 19 19 19 19 19 20 19 19 19 19 19 19 18 16 18 19 19 18 17 12 18
7 6 9 12 13 13 12 12 12 14 15 15 16 16 16 16 17 17 17 17 17 18 18 18 18 18 18 19 18 18 18 18 18 17 15 8 10 18 18 17 17 17 17
8 7 9 12 13 13 12 12 13 14 15 15 16 16 16 16 17 17 17 16 17 17 18 17 17 18 18 18 18 17 17 17 17 15 8 7 7 16 17 17 16 16 16
7 7 9 12 13 13 12 12 13 14 15 15 15 16 15 16 16 16 16 16 16 17 17 17 17 17 17 17 17 17 16 16 16 12 7 7 6 14 15 15 15 15 15
7 7 9 12 13 13 13 13 13 14 15 15 15 15 15 15 15 15 15 15 15 16 16 16 16 16 16 16 16 16 15 15 12 7 7 6 5 13 14 14 14 14 13
8 6 8 12 12 12 13 13 13 14 14 14 15 15 15 14 14 14 14 14 14 15 15 15 16 15 15 14 14 14 14 13 8 6 6 5 7 13 13 13 13 13 12
8 6 7 11 11 11 11 12 12 13 13 14 14 14 14 13 13 13 13 13 14 14 14 15 15 15 14 13 13 12 11 10 8 6 5 5 9 12 12 12 12 11 11
7 7 6 6 8 10 11 11 11 11 12 12 13 13 12 12 12 12 11 12 13 13 13 14 14 14 13 13 12 11 10 10 6 4 5 4 8 11 11 11 10 10 10
7 6 6 6 6 6 7 10 10 10 11 11 12 11 11 10 10 10 9 11 12 12 12 12 12 12 12 11 10 9 8 7 4 4 3 4 8 9 9 9 9 8 8
8 7 7 6 6 6 6 7 8 9 10 10 9 10 8 5 5 6 7 9 10 10 11 11 11 11 10 10 9 8 6 2 3 2 3 5 7 7 7 7 7 7 7
12 10 7 8 7 6 5 5 4 4 5 5 5 5 4 4 4 5 7 8 9 8 9 9 10 9 7 4 5 5 2 2 2 2 3 7 7 7 7 6 6 6 6
12 11 9 8 7 6 5 4 3 3 3 4 5 5 4 3 3 3 3 3 4 5 4 5 5 3 3 3 2 2 2 2 1 2 3 7 8 8 8 8 8 7 7
12 13 11 9 8 7 6 4 4 3 3 3 4 5 4 3 3 2 2 2 2 2 2 2 2 3 3 3 2 2 2 1 2 2 3 7 9 9 10 11 11 11 11
12 13 12 11 10 8 7 5 5 4 4 4 3 4 4 3 3 2 2 1 1 1 1 1 1 2 2 2 2 2 3 3 3 3 3 7 9 10 12 13 13 14 14
12 12 11 12 11 9 8 6 5 5 4 4 4 4 5 4 4 3 2 2 1 1 1 1 0 0 1 1 2 3 3 4 4 4 3 4 8 10 11 12 13 14 15
11 11 11 12 10 10 9 7 5 5 4 4 4 5 5 4 4 4 3 2 2 2 1 1 0 0 1 2 3 3 3 4 4 5 4 3 4 7 9 11 12 13 14
10 10 11 9 10 10 9 7 5 5 5 4 4 4 6 5 5 4 3 3 3 2 2 1 1 1 2 2 3 3 3 4 5 4 3 3 3 3 5 9 11 12 14
12 12 12 10 11 11 9 7 6 5 5 4 4 4 5 6 6 4 4 3 4 3 2 2 2 1 2 2 3 4 4 4 4 3 3 3 3 3 3 6 9 10 13
10 11 11 11 11 9 7 5 4 5 5 4 5 5 6 6 6 5 4 4 4 3 3 3 3 2 2 2 3 4 4 4 3 2 3 2 2 3 3 4 4 6 11
10 11 13 13 12 9 7 7 6 6 5 5 5 6 7 7 7 6 4 4 4 4 4 4 3 2 2 1 1 3 4 2 2 1 1 2 3 3 4 4 4 4 5
13 14 14 14 13 12 10 7 4 4 4 4 5 6 7 7 7 6 6 5 5 4 4 4 3 2 1 1 1 1 4 5 3 2 2 2 3 3 4 4 5 5 4
15 16 14 15 14 13 11 6 4 3 3 4 5 5 7 8 8 7 7 6 5 5 4 5 5 4 2 2 2 1 0 2 4 3 2 2 3 3 3 4 5 5 5
16 14 14 14 14 13 12 10 10 9 8 7 5 5 6 7 8 7 7 6 6 4 4 4 4 3 3 2 1 1 1 1 1 4 3 2 2 3 4 4 4 4 5
12 11 12 12 13 13 14 14 13 11 8 5 5 6 6 5 6 6 6 5 5 4 4 4 4 4 3 3 2 2 1 1 2 2 5 4 4 3 3 3 2 3 5
8 8 10 12 13 13 15 15 14 13 10 8 7 6 5 3 3 4 5 5 5 4 4 4 4 4 3 3 2 2 2 1 1 2 3 4 4 4 3 2 3 3 4
Wind_Direction
156 165 137 120 113 109 106 103 101 99 96 94 91 88 86 85 84 83 82 82 83 82 81 80 80 80 78 76 74 72 70 67 65 64 64 66 66 66 65 63 58 53 59
146 151 134 121 117 113 110 107 105 102 99 96 93 91 90 88 87 85 84 84 84 83 82 81 81 82 81 79 76 74 72 69 66 63 60 59 64 64 62 60 60 58 58
132 135 128 121 118 117 113 110 108 105 101 99 96 93 92 91 89 88 87 86 86 85 83 82 82 83 83 81 78 76 74 71 67 63 57 42 55 63 62 59 57 57 56
128 125 125 121 122 121 117 112 109 106 104 101 98 96 93 92 91 89 88 88 87 86 85 84 83 84 84 82 80 78 75 70 67 62 47 37 46 61 59 57 55 54 54
118 120 127 124 126 125 121 116 112 109 106 103 100 98 95 92 91 91 90 88 88 87 85 85 85 85 85 83 81 79 76 72 65 54 39 34 39 59 59 57 55 53 52
117 122 131 128 129 128 124 119 114 112 109 106 104 101 97 95 93 92 92 90 89 87 85 85 86 86 87 85 82 80 77 72 59 45 37 30 37 58 58 57 56 54 52
126 124 133 130 131 131 129 122 117 115 113 110 107 104 102 99 98 96 95 94 92 89 87 87 87 86 86 85 84 82 79 73 62 47 36 27 46 58 57 56 54 51 49
130 124 128 131 131 131 129 125 121 120 118 116 112 109 106 103 101 100 99 98 96 93 90 88 87 84 84 84 84 83 77 70 62 49 37 26 50 56 55 53 51 49 46
124 121 117 125 128 128 125 123 121 120 117 116 114 109 104 102 100 98 98 100 98 95 91 88 87 84 82 83 85 82 77 69 57 41 32 20 44 52 52 48 45 44 41
130 129 126 123 122 122 121 123 121 118 115 112 109 105 101 98 96 92 92 98 98 96 93 88 86 83 80 79 82 80 73 61 50 37 17 12 35 43 44 41 36 34 31
154 149 142 136 131 127 124 126 122 118 118 114 111 111 102 94 90 87 92 96 96 94 92 87 84 80 75 70 72 75 67 53 43 21 357 355 18 25 29 27 21 17 13
172 168 162 154 148 140 133 124 119 117 120 116 116 113 106 105 99 94 91 90 86 81 81 81 77 72 69 56 53 58 51 41 27 355 333 340 350 355 359 358 353 348 343
175 174 173 167 161 152 142 142 133 124 123 126 129 127 117 106 98 88 82 75 74 70 64 64 60 54 56 55 50 45 37 26 353 327 319 323 325 326 330 330 327 322 316
177 181 178 174 170 163 155 155 153 150 148 149 150 143 132 124 121 119 108 104 88 78 77 63 57 47 44 38 36 20 0 340 315 306 300 310 314 314 317 318 318 316 311
182 183 183 180 179 173 166 169 169 169 168 164 158 158 152 146 149 145 136 128 119 101 94 79 55 36 22 4 351 341 324 314 305 299 299 306 312 313 314 315 316 317 317
187 185 182 185 184 179 179 180 178 177 171 166 170 172 167 159 159 159 160 165 171 166 156 141 119 18 333 324 316 313 303 300 294 294 293 304 310 312 313 315 317 320 321
189 184 184 186 184 185 186 185 180 180 173 175 177 176 175 172 170 169 173 186 193 179 169 155 243 334 311 312 306 305 299 292 290 293 298 299 304 309 314 320 324 326 326
183 184 186 184 186 190 189 187 182 180 180 183 177 177 183 182 177 173 182 196 187 173 175 188 208 275 289 295 299 299 292 290 290 294 300 301 305 310 321 328 332 334 333
186 185 186 186 188 192 190 186 184 181 186 184 178 182 187 187 183 181 191 194 180 180 188 192 201 214 274 292 297 297 291 287 292 303 309 315 319 324 327 333 337 337 338
189 187 189 190 190 187 183 177 179 187 192 186 187 191 186 188 187 186 192 192 178 181 193 193 206 209 245 283 299 293 285 287 298 306 309 325 341 351 347 341 340 339 341
192 192 193 193 192 184 182 186 190 198 196 194 195 192 189 190 190 190 192 188 184 196 203 192 187 210 236 209 315 316 313 313 325 316 332 354 2 3 359 353 347 342 338
199 199 198 198 195 192 194 188 180 173 183 191 189 193 192 192 192 194 196 194 193 199 199 189 178 176 195 168 170 336 332 338 340 342 7 16 5 2 356 351 347 346 349
205 203 202 201 198 197 191 175 159 155 155 176 190 196 198 196 196 196 199 196 193 192 201 196 184 183 190 183 185 179 298 307 317 322 347 4 2 354 342 341 348 360 7
211 204 203 201 199 196 190 186 185 193 200 197 185 189 193 197 199 198 197 194 191 187 191 188 181 178 172 184 178 201 209 178 289 313 317 331 348 340 332 341 355 12 18
207 202 202 199 200 196 194 196 197 203 203 178 170 180 188 192 193 191 189 184 180 178 177 167 163 166 172 171 165 166 176 180 200 249 293 316 330 318 327 342 13 22 19
199 197 195 197 201 197 196 199 200 201 192 176 177 180 182 173 174 175 168 168 163 158 161 156 149 150 148 140 133 135 146 161 184 231 275 303 310 307 325 8 33 26 17